Back to catalog

FENGYUN 1C DEB

AliveSSO
NORAD 31332·DEBRIS·🇨🇳 China

Launched May 10, 1999 from Taiyuan Satellite Launch Center

Loading…

Next Passes (next 24 hours)

TLE

FreshSource: Space-Track

Epoch: Sep 14, 2026, 06:46 UTC

1 31332U 99025BQL 26257.28248847  .00000924  00000-0  51693-3 0  9994
2 31332  98.7040 264.7090 0048431 322.0475  50.6522 14.12606533998617

Track FENGYUN 1C DEB in real time with AllMySat

Download on the App Store